QPF
0.00 0.00 0.00 0.00 0.01 0.01 0.02 0.02 0.02 0.01 0.00 0.01 0.06 0.14 0.27 0.37 0.37 0.32 0.23 0.16 0.11 0.08 0.06 0.04 0.03 0.02 0.01 0.00 0.00 0.00 0.00 0.01 0.02 0.03 0.04 0.06 0.08 0.10
0.00 0.00 0.00 0.00 0.00 0.01 0.01 0.02 0.02 0.01 0.01 0.02 0.07 0.13 0.16 0.22 0.25 0.24 0.18 0.11 0.06 0.04 0.02 0.01 0.01 0.00 0.00 0.00 0.00 0.00 0.00 0.00 0.00 0.01 0.01 0.03 0.05 0.10
0.00 0.00 0.00 0.00 0.00 0.00 0.01 0.01 0.02 0.02 0.01 0.03 0.09 0.12 0.12 0.12 0.13 0.13 0.11 0.06 0.03 0.02 0.01 0.00 0.00 0.00 0.00 0.00 0.00 0.00 0.00 0.00 0.00 0.00 0.00 0.01 0.02 0.04
0.00 0.00 0.00 0.00 0.00 0.00 0.00 0.00 0.01 0.03 0.03 0.04 0.09 0.13 0.11 0.09 0.09 0.09 0.06 0.03 0.01 0.01 0.00 0.00 0.00 0.00 0.00 0.00 0.00 0.00 0.00 0.00 0.00 0.00 0.00 0.00 0.01 0.01
0.01 0.01 0.00 0.00 0.00 0.00 0.00 0.00 0.01 0.03 0.06 0.07 0.10 0.14 0.13 0.09 0.07 0.06 0.04 0.03 0.01 0.01 0.00 0.00 0.00 0.00 0.00 0.00 0.00 0.00 0.00 0.00 0.00 0.00 0.00 0.00 0.00 0.00
0.03 0.02 0.01 0.00 0.00 0.00 0.00 0.00 0.01 0.02 0.04 0.06 0.11 0.15 0.14 0.09 0.08 0.07 0.05 0.03 0.02 0.01 0.00 0.00 0.00 0.00 0.00 0.00 0.00 0.00 0.00 0.00 0.00 0.00 0.00 0.00 0.00 0.00
0.04 0.03 0.01 0.00 0.00 0.00 0.00 0.00 0.00 0.01 0.03 0.06 0.11 0.17 0.16 0.12 0.08 0.05 0.05 0.04 0.03 0.01 0.01 0.00 0.00 0.00 0.00 0.00 0.00 0.00 0.00 0.00 0.00 0.00 0.00 0.00 0.00 0.00
0.04 0.03 0.02 0.00 0.00 0.00 0.00 0.00 0.00 0.01 0.02 0.05 0.11 0.19 0.21 0.15 0.10 0.08 0.06 0.04 0.04 0.02 0.01 0.00 0.00 0.00 0.00 0.00 0.00 0.00 0.00 0.00 0.00 0.00 0.00 0.00 0.00 0.00
0.06 0.04 0.03 0.01 0.00 0.00 0.00 0.00 0.00 0.01 0.02 0.04 0.09 0.14 0.19 0.19 0.16 0.14 0.08 0.05 0.04 0.02 0.01 0.00 0.00 0.00 0.00 0.00 0.00 0.00 0.00 0.00 0.00 0.00 0.00 0.00 0.00 0.00
0.07 0.06 0.04 0.02 0.00 0.00 0.00 0.00 0.00 0.01 0.02 0.04 0.09 0.15 0.19 0.20 0.17 0.14 0.10 0.07 0.05 0.04 0.02 0.00 0.00 0.00 0.00 0.00 0.00 0.00 0.00 0.00 0.00 0.00 0.00 0.00 0.00 0.00
0.09 0.09 0.06 0.03 0.01 0.00 0.00 0.00 0.00 0.00 0.02 0.04 0.08 0.14 0.18 0.16 0.11 0.09 0.09 0.07 0.05 0.03 0.01 0.00 0.00 0.00 0.00 0.00 0.00 0.00 0.00 0.00 0.00 0.00 0.00 0.00 0.00 0.00
0.11 0.12 0.10 0.05 0.02 0.00 0.00 0.00 0.00 0.00 0.01 0.02 0.03 0.06 0.07 0.08 0.08 0.06 0.04 0.03 0.02 0.02 0.01 0.00 0.00 0.00 0.00 0.00 0.00 0.00 0.00 0.00 0.00 0.00 0.00 0.00 0.00 0.00
0.15 0.16 0.14 0.09 0.04 0.01 0.01 0.00 0.00 0.00 0.00 0.00 0.01 0.01 0.02 0.02 0.02 0.03 0.02 0.01 0.01 0.00 0.00 0.00 0.00 0.00 0.00 0.00 0.00 0.00 0.00 0.00 0.00 0.00 0.00 0.00 0.00 0.00
0.19 0.23 0.18 0.13 0.07 0.03 0.01 0.00 0.00 0.00 0.00 0.00 0.00 0.01 0.01 0.01 0.01 0.01 0.01 0.01 0.00 0.00 0.00 0.00 0.00 0.00 0.00 0.00 0.00 0.00 0.00 0.00 0.00 0.00 0.00 0.00 0.00 0.00
0.21 0.31 0.27 0.18 0.10 0.05 0.02 0.00 0.00 0.00 0.00 0.00 0.00 0.00 0.00 0.00 0.00 0.00 0.00 0.00 0.00 0.00 0.00 0.00 0.00 0.00 0.00 0.00 0.00 0.00 0.00 0.00 0.00 0.00 0.00 0.00 0.00 0.00
0.21 0.34 0.38 0.27 0.15 0.07 0.03 0.01 0.00 0.00 0.00 0.00 0.00 0.00 0.00 0.00 0.00 0.00 0.00 0.00 0.00 0.00 0.00 0.00 0.00 0.00 0.00 0.00 0.00 0.00 0.00 0.00 0.00 0.00 0.00 0.00 0.00 0.00
0.23 0.38 0.48 0.37 0.21 0.09 0.03 0.01 0.00 0.00 0.00 0.00 0.00 0.00 0.00 0.00 0.00 0.00 0.00 0.00 0.00 0.00 0.00 0.00 0.00 0.00 0.00 0.00 0.00 0.00 0.00 0.00 0.00 0.00 0.00 0.00 0.00 0.00
0.24 0.40 0.50 0.40 0.21 0.09 0.02 0.01 0.00 0.00 0.00 0.00 0.00 0.00 0.00 0.00 0.00 0.00 0.00 0.00 0.00 0.00 0.00 0.00 0.00 0.00 0.00 0.00 0.00 0.00 0.00 0.00 0.00 0.00 0.00 0.00 0.00 0.00
0.18 0.31 0.38 0.33 0.17 0.07 0.02 0.00 0.00 0.00 0.00 0.00 0.00 0.00 0.00 0.00 0.00 0.00 0.00 0.00 0.00 0.00 0.00 0.00 0.00 0.00 0.00 0.00 0.00 0.00 0.00 0.00 0.00 0.00 0.00 0.00 0.00 0.00
0.12 0.18 0.23 0.21 0.11 0.05 0.02 0.00 0.00 0.00 0.00 0.00 0.00 0.00 0.00 0.00 0.00 0.00 0.00 0.00 0.00 0.00 0.00 0.00 0.00 0.00 0.00 0.00 0.00 0.00 0.00 0.00 0.00 0.00 0.00 0.00 0.00 0.00
0.08 0.10 0.12 0.09 0.05 0.02 0.01 0.00 0.00 0.00 0.00 0.00 0.00 0.00 0.00 0.00 0.00 0.00 0.00 0.00 0.00 0.00 0.00 0.00 0.00 0.00 0.00 0.00 0.00 0.00 0.00 0.00 0.00 0.00 0.00 0.00 0.00 0.00
0.06 0.05 0.04 0.02 0.01 0.01 0.00 0.00 0.00 0.00 0.00 0.00 0.00 0.00 0.00 0.00 0.00 0.00 0.00 0.00 0.00 0.00 0.00 0.00 0.00 0.00 0.00 0.00 0.00 0.00 0.00 0.00 0.00 0.00 0.00 0.00 0.00 0.00
0.03 0.02 0.01 0.00 0.00 0.00 0.00 0.00 0.00 0.00 0.00 0.00 0.00 0.00 0.00 0.00 0.00 0.00 0.00 0.00 0.00 0.00 0.00 0.00 0.00 0.00 0.00 0.00 0.00 0.00 0.00 0.00 0.00 0.00 0.00 0.00 0.00 0.00
MSLP
1007.82 1007.94 1008.15 1008.40 1008.65 1008.87 1009.01 1009.05 1008.97 1008.78 1008.51 1008.19 1007.86 1007.57 1007.36 1007.25 1007.25 1007.37 1007.60 1007.92 1008.30 1008.72 1009.14 1009.56 1009.95 1010.31 1010.63 1010.91 1011.14 1011.35 1011.51 1011.64 1011.73 1011.78 1011.78 1011.75 1011.68 1011.61
1007.23 1007.33 1007.50 1007.73 1007.98 1008.20 1008.36 1008.45 1008.43 1008.33 1008.16 1007.96 1007.76 1007.60 1007.50 1007.50 1007.59 1007.78 1008.06 1008.41 1008.80 1009.21 1009.62 1010.01 1010.38 1010.72 1011.02 1011.28 1011.51 1011.71 1011.88 1012.01 1012.11 1012.15 1012.15 1012.09 1011.99 1011.87
1006.66 1006.72 1006.85 1007.05 1007.26 1007.47 1007.64 1007.75 1007.79 1007.78 1007.72 1007.65 1007.59 1007.58 1007.63 1007.76 1007.98 1008.27 1008.63 1009.03 1009.46 1009.88 1010.29 1010.67 1011.02 1011.32 1011.60 1011.84 1012.05 1012.24 1012.41 1012.54 1012.64 1012.70 1012.71 1012.66 1012.56 1012.43
1006.14 1006.15 1006.24 1006.39 1006.56 1006.74 1006.90 1007.02 1007.10 1007.15 1007.19 1007.24 1007.32 1007.46 1007.66 1007.94 1008.30 1008.72 1009.18 1009.67 1010.15 1010.62 1011.05 1011.43 1011.76 1012.05 1012.29 1012.51 1012.69 1012.86 1013.01 1013.15 1013.26 1013.33 1013.37 1013.36 1013.30 1013.21
1005.68 1005.65 1005.69 1005.79 1005.92 1006.06 1006.19 1006.31 1006.41 1006.50 1006.61 1006.75 1006.94 1007.21 1007.56 1007.98 1008.48 1009.03 1009.61 1010.20 1010.77 1011.30 1011.77 1012.18 1012.52 1012.80 1013.03 1013.21 1013.37 1013.51 1013.64 1013.76 1013.88 1013.98 1014.05 1014.10 1014.10 1014.07
1005.27 1005.21 1005.22 1005.28 1005.37 1005.47 1005.57 1005.66 1005.76 1005.87 1006.01 1006.20 1006.48 1006.84 1007.29 1007.84 1008.46 1009.13 1009.84 1010.54 1011.21 1011.83 1012.37 1012.83 1013.21 1013.50 1013.72 1013.89 1014.02 1014.13 1014.24 1014.35 1014.47 1014.59 1014.70 1014.80 1014.88 1014.93
1004.88 1004.81 1004.80 1004.83 1004.90 1004.97 1005.04 1005.10 1005.18 1005.28 1005.43 1005.65 1005.96 1006.38 1006.90 1007.53 1008.25 1009.03 1009.85 1010.66 1011.44 1012.16 1012.79 1013.32 1013.75 1014.08 1014.32 1014.49 1014.61 1014.71 1014.80 1014.89 1015.00 1015.13 1015.27 1015.42 1015.56 1015.69
1004.47 1004.41 1004.40 1004.44 1004.49 1004.55 1004.60 1004.65 1004.70 1004.79 1004.92 1005.14 1005.46 1005.90 1006.46 1007.14 1007.92 1008.77 1009.67 1010.58 1011.46 1012.27 1013.00 1013.62 1014.12 1014.51 1014.80 1014.99 1015.12 1015.21 1015.29 1015.37 1015.47 1015.60 1015.76 1015.94 1016.12 1016.31
1004.01 1003.98 1004.00 1004.06 1004.13 1004.19 1004.25 1004.29 1004.34 1004.41 1004.54 1004.75 1005.06 1005.50 1006.07 1006.76 1007.57 1008.46 1009.41 1010.38 1011.33 1012.23 1013.04 1013.74 1014.33 1014.79 1015.13 1015.37 1015.53 1015.64 1015.72 1015.80 1015.90 1016.02 1016.18 1016.36 1016.57 1016.78
1003.51 1003.52 1003.59 1003.68 1003.79 1003.88 1003.97 1004.03 1004.10 1004.19 1004.32 1004.53 1004.84 1005.27 1005.83 1006.52 1007.32 1008.21 1009.17 1010.16 1011.14 1012.08 1012.95 1013.72 1014.37 1014.91 1015.32 1015.62 1015.83 1015.98 1016.08 1016.17 1016.27 1016.39 1016.54 1016.72 1016.91 1017.12
1002.99 1003.05 1003.16 1003.31 1003.46 1003.62 1003.75 1003.87 1003.98 1004.11 1004.28 1004.52 1004.84 1005.27 1005.82 1006.48 1007.25 1008.11 1009.04 1010.00 1010.97 1011.91 1012.79 1013.59 1014.29 1014.88 1015.36 1015.73 1016.00 1016.21 1016.36 1016.48 1016.59 1016.71 1016.85 1017.01 1017.19 1017.37
1002.50 1002.60 1002.77 1002.96 1003.17 1003.38 1003.58 1003.77 1003.96 1004.16 1004.40 1004.69 1005.06 1005.51 1006.05 1006.69 1007.42 1008.22 1009.07 1009.97 1010.87 1011.76 1012.61 1013.40 1014.11 1014.74 1015.27 1015.70 1016.04 1016.31 1016.52 1016.69 1016.83 1016.97 1017.11 1017.26 1017.41 1017.56
1002.10 1002.24 1002.43 1002.67 1002.92 1003.19 1003.46 1003.73 1004.01 1004.31 1004.64 1005.02 1005.44 1005.93 1006.49 1007.11 1007.78 1008.50 1009.27 1010.06 1010.86 1011.65 1012.43 1013.17 1013.86 1014.49 1015.05 1015.53 1015.94 1016.28 1016.56 1016.79 1016.98 1017.15 1017.30 1017.45 1017.58 1017.71
1001.82 1001.99 1002.20 1002.45 1002.73 1003.04 1003.37 1003.72 1004.10 1004.50 1004.94 1005.41 1005.92 1006.47 1007.05 1007.65 1008.28 1008.92 1009.58 1010.25 1010.92 1011.59 1012.26 1012.92 1013.56 1014.17 1014.73 1015.25 1015.72 1016.12 1016.47 1016.77 1017.02 1017.23 1017.41 1017.56 1017.70 1017.82
1001.70 1001.86 1002.07 1002.32 1002.60 1002.93 1003.30 1003.72 1004.18 1004.68 1005.23 1005.80 1006.40 1007.01 1007.62 1008.23 1008.81 1009.38 1009.94 1010.48 1011.02 1011.57 1012.12 1012.68 1013.25 1013.82 1014.38 1014.92 1015.42 1015.88 1016.29 1016.65 1016.95 1017.21 1017.42 1017.59 1017.73 1017.85
1001.70 1001.86 1002.04 1002.27 1002.54 1002.87 1003.25 1003.71 1004.23 1004.81 1005.45 1006.11 1006.79 1007.47 1008.12 1008.73 1009.29 1009.81 1010.28 1010.72 1011.14 1011.57 1012.01 1012.48 1012.98 1013.50 1014.04 1014.58 1015.11 1015.60 1016.06 1016.46 1016.80 1017.09 1017.33 1017.52 1017.67 1017.80
1001.78 1001.93 1002.09 1002.28 1002.51 1002.82 1003.20 1003.67 1004.23 1004.87 1005.56 1006.30 1007.05 1007.78 1008.47 1009.09 1009.65 1010.13 1010.54 1010.91 1011.26 1011.60 1011.96 1012.36 1012.80 1013.28 1013.80 1014.33 1014.86 1015.36 1015.83 1016.25 1016.61 1016.91 1017.16 1017.35 1017.51 1017.63
1001.88 1002.01 1002.15 1002.30 1002.51 1002.78 1003.15 1003.61 1004.18 1004.84 1005.57 1006.35 1007.15 1007.92 1008.64 1009.28 1009.84 1010.32 1010.71 1011.05 1011.36 1011.66 1011.98 1012.34 1012.75 1013.20 1013.69 1014.21 1014.72 1015.22 1015.67 1016.07 1016.42 1016.70 1016.92 1017.09 1017.23 1017.33
1001.94 1002.07 1002.19 1002.32 1002.49 1002.74 1003.08 1003.53 1004.09 1004.76 1005.50 1006.30 1007.11 1007.91 1008.66 1009.32 1009.90 1010.39 1010.80 1011.15 1011.46 1011.76 1012.09 1012.44 1012.84 1013.28 1013.75 1014.24 1014.72 1015.17 1015.59 1015.94 1016.23 1016.46 1016.63 1016.75 1016.85 1016.92
1001.93 1002.06 1002.17 1002.29 1002.45 1002.68 1003.01 1003.44 1003.99 1004.65 1005.39 1006.18 1007.00 1007.81 1008.56 1009.25 1009.85 1010.37 1010.82 1011.20 1011.55 1011.90 1012.25 1012.63 1013.04 1013.48 1013.93 1014.39 1014.82 1015.22 1015.56 1015.84 1016.05 1016.20 1016.29 1016.35 1016.39 1016.41
1001.84 1001.98 1002.10 1002.23 1002.39 1002.62 1002.94 1003.37 1003.90 1004.54 1005.27 1006.05 1006.86 1007.65 1008.41 1009.11 1009.74 1010.30 1010.79 1011.23 1011.64 1012.03 1012.44 1012.85 1013.28 1013.72 1014.16 1014.58 1014.96 1015.28 1015.54 1015.72 1015.84 1015.90 1015.91 1015.89 1015.87 1015.84
1001.70 1001.85 1001.99 1002.13 1002.31 1002.55 1002.88 1003.31 1003.85 1004.47 1005.18 1005.94 1006.72 1007.50 1008.25 1008.95 1009.60 1010.19 1010.72 1011.21 1011.68 1012.13 1012.58 1013.04 1013.49 1013.93 1014.34 1014.71 1015.03 1015.27 1015.44 1015.53 1015.56 1015.53 1015.47 1015.38 1015.30 1015.24
1001.53 1001.70 1001.85 1002.03 1002.23 1002.50 1002.85 1003.29 1003.82 1004.44 1005.13 1005.86 1006.61 1007.37 1008.10 1008.79 1009.44 1010.04 1010.61 1011.14 1011.64 1012.14 1012.63 1013.10 1013.56 1013.98 1014.37 1014.69 1014.94 1015.11 1015.20 1015.22 1015.17 1015.07 1014.95 1014.83 1014.72 1014.64
Thickness
5693 5695 5695 5698 5700 5700 5700 5697 5692 5688 5687 5692 5695 5698 5698 5699 5701 5701 5701 5700 5699 5699 5699 5698 5697 5696 5696 5696 5698 5699 5701 5703 5706 5708 5710 5712 5714 5715
5687 5689 5690 5692 5694 5696 5696 5695 5693 5689 5685 5686 5689 5690 5690 5689 5689 5690 5690 5690 5690 5690 5690 5689 5688 5688 5688 5688 5688 5689 5690 5692 5694 5696 5699 5701 5704 5706
5681 5683 5685 5687 5688 5690 5692 5691 5690 5688 5685 5683 5684 5684 5683 5680 5678 5679 5679 5679 5679 5680 5680 5680 5679 5679 5678 5678 5678 5679 5680 5681 5683 5684 5686 5688 5690 5692
5674 5677 5679 5682 5683 5685 5686 5686 5686 5686 5684 5681 5679 5678 5676 5674 5671 5669 5669 5668 5668 5668 5669 5669 5669 5669 5668 5668 5668 5669 5669 5670 5671 5672 5674 5675 5676 5677
5667 5670 5674 5676 5677 5680 5681 5682 5682 5684 5683 5680 5677 5675 5671 5667 5664 5661 5659 5658 5657 5656 5657 5657 5657 5658 5658 5658 5658 5658 5659 5659 5660 5661 5661 5662 5663 5664
5658 5663 5668 5671 5673 5675 5677 5678 5679 5680 5680 5679 5676 5672 5666 5662 5659 5654 5650 5649 5648 5647 5646 5646 5646 5647 5647 5647 5648 5648 5648 5648 5648 5649 5650 5650 5650 5650
5646 5654 5661 5666 5669 5671 5673 5674 5676 5677 5679 5678 5675 5669 5663 5658 5653 5650 5646 5642 5638 5636 5636 5635 5636 5636 5636 5636 5637 5637 5637 5637 5638 5638 5637 5637 5637 5638
5632 5642 5650 5657 5662 5665 5669 5671 5674 5675 5677 5676 5674 5668 5662 5656 5651 5646 5642 5639 5632 5627 5629 5625 5626 5625 5625 5626 5626 5627 5628 5627 5626 5626 5626 5626 5627 5627
5619 5630 5640 5647 5652 5656 5660 5665 5669 5673 5676 5676 5673 5668 5661 5655 5650 5642 5637 5635 5631 5624 5623 5616 5614 5614 5614 5614 5616 5617 5617 5617 5617 5617 5617 5617 5617 5618
5606 5618 5629 5637 5642 5647 5651 5655 5660 5666 5670 5672 5670 5665 5659 5652 5647 5641 5633 5626 5621 5617 5617 5609 5604 5603 5604 5604 5606 5607 5608 5609 5609 5609 5609 5609 5610 5611
5592 5606 5618 5627 5634 5639 5643 5646 5651 5656 5661 5663 5662 5657 5651 5645 5640 5634 5627 5621 5613 5608 5608 5604 5598 5595 5594 5595 5597 5599 5601 5602 5603 5603 5603 5604 5604 5605
5577 5594 5607 5617 5624 5630 5634 5638 5642 5647 5651 5651 5649 5645 5641 5636 5632 5630 5625 5619 5611 5604 5603 5600 5595 5593 5587 5589 5591 5594 5595 5597 5598 5598 5599 5599 5600 5600
5563 5581 5596 5606 5614 5620 5625 5630 5636 5639 5641 5641 5639 5635 5631 5627 5625 5623 5621 5618 5611 5606 5604 5600 5594 5592 5590 5587 5588 5590 5591 5593 5594 5595 5595 5595 5595 5595
5555 5570 5585 5595 5603 5609 5616 5620 5625 5630 5632 5631 5629 5625 5622 5620 5618 5618 5617 5615 5613 5611 5607 5604 5598 5594 5591 5587 5586 5588 5589 5590 5591 5592 5592 5592 5592 5591
5547 5561 5576 5585 5592 5598 5605 5609 5615 5621 5622 5622 5619 5616 5615 5614 5613 5612 5610 5609 5606 5606 5605 5604 5603 5598 5596 5592 5588 5587 5587 5588 5589 5589 5590 5589 5589 5587
5540 5552 5565 5574 5582 5589 5594 5600 5607 5612 5615 5613 5610 5607 5607 5606 5606 5607 5604 5603 5599 5596 5598 5601 5602 5600 5595 5594 5591 5588 5587 5587 5587 5587 5586 5585 5584 5582
5534 5543 5555 5565 5574 5580 5586 5592 5598 5603 5604 5603 5603 5601 5599 5598 5597 5598 5598 5598 5596 5592 5591 5593 5596 5597 5597 5594 5588 5586 5584 5584 5584 5583 5581 5578 5577 5575
5530 5538 5549 5560 5568 5575 5580 5584 5589 5594 5597 5597 5597 5595 5593 5592 5589 5590 5592 5592 5591 5590 5589 5589 5590 5589 5586 5584 5587 5583 5581 5580 5579 5577 5575 5571 5568 5567
5527 5535 5545 5553 5560 5567 5573 5579 5583 5587 5590 5591 5591 5590 5589 5586 5585 5584 5585 5584 5584 5583 5584 5585 5586 5584 5580 5576 5577 5581 5578 5574 5572 5570 5568 5565 5562 5562
5523 5531 5539 5547 5554 5561 5567 5573 5578 5581 5583 5585 5585 5585 5584 5582 5581 5580 5580 5580 5578 5577 5577 5578 5580 5580 5578 5576 5574 5574 5575 5572 5567 5563 5561 5558 5557 5556
5519 5527 5535 5542 5550 5557 5563 5569 5574 5576 5578 5579 5580 5581 5580 5579 5577 5577 5576 5577 5575 5574 5574 5574 5576 5579 5577 5573 5570 5569 5568 5568 5566 5561 5556 5551 5548 5545
5518 5526 5534 5541 5548 5555 5560 5565 5569 5572 5573 5575 5576 5576 5576 5576 5575 5574 5574 5573 5573 5573 5572 5571 5571 5572 5570 5568 5565 5564 5562 5561 5559 5557 5554 5552 5545 5540
5519 5527 5534 5542 5549 5555 5561 5564 5567 5569 5570 5572 5573 5573 5574 5573 5573 5573 5573 5573 5572 5570 5568 5565 5564 5565 5565 5563 5560 5557 5557 5554 5551 5549 5548 5549 5546 5544